Location: *
(51.1248°S, 108.4023°W)
Time: 17:04:14
(UTC+00:00)

Cosmos 1544 - Pass Details

Date: 23 October 2021
Orbit: 467 x 486 km, 82.5° (Epoch: 28 November)

Event Time Altitude Azimuth Distance (km) Brightness Sun altitude
Exits shadow 08:52:37 68° 191° (S) 525 3.2 -22.6°
Drops below altitude 10° 08:55:53 10° 171° (S) 1,680 6.7 -22.3°
Sets 08:58:01 0° 170° (S) 2,571 7.9 -22.1°
